Hourly Data Report for October 11, 2013

All times are specified in Local Standard Time (LST). Add 1 hour to adjust for Daylight Saving Time where and when it is observed.

OTTAWA INTL A
ONTARIO

45°19'00.000" N
75°40'00.000" W
114.90 m
6106001
71628
YOW

Download Data

Hourly Data (October 2013)
Hourly Data Report for October 11, 2013
Temp Definition
°C
Dew Point Temp Definition
°C
Rel Hum Definition
%
Wind Dir Definition
10's deg

Wind Spd Definition
km/h
Visibility Definition
km
Stn Press Definition
kPa
Hmdx Definition


Wind Chill Definition


Weather Definition


TIME
00:00 Legend Double Dagger 7.5 6.1 91 1 2 24.1 100.84     LegendNANA
01:00 Legend Double Dagger 5.4 5.0 97 18 4 24.1 100.86     Clear
02:00 Legend Double Dagger 6.1 4.4 89 1 8 24.1 100.85     LegendNANA
03:00 Legend Double Dagger 4.2 2.7 90 2 7 24.1 100.85     LegendNANA
04:00 Legend Double Dagger 7.3 5.3 87 33 3 24.1 100.86     Clear
05:00 Legend Double Dagger 5.1 4.1 93 33 9 24.1 100.86     LegendNANA
06:00 Legend Double Dagger 4.2 3.6 96 29 5 24.1 100.88     LegendNANA
07:00 Legend Double Dagger 5.4 4.8 96 32 2 24.1 100.90     Mainly Clear
08:00 Legend Double Dagger 9.1 6.9 86 36 9 24.1 100.89     LegendNANA
09:00 Legend Double Dagger 12.4 7.1 70 1 8 24.1 100.92     LegendNANA
10:00 Legend Double Dagger 14.9 7.0 59 6 9 24.1 100.91     Mainly Clear
11:00 Legend Double Dagger 17.3 8.0 54 10 4 24.1 100.90     LegendNANA
12:00 Legend Double Dagger 20.0 8.8 48 6 8 24.1 100.86     LegendNANA
13:00 Legend Double Dagger 21.2 7.9 42 7 11 24.1 100.79     Mainly Clear
14:00 Legend Double Dagger 21.8 8.1 41 7 12 24.1 100.75     LegendNANA
15:00 Legend Double Dagger 22.0 7.6 39 6 7 24.1 100.75     LegendNANA
16:00 Legend Double Dagger 21.7 7.7 40 13 5 24.1 100.75     Clear
17:00 Legend Double Dagger 18.9 8.7 51 13 8 24.1 100.76     LegendNANA
18:00 Legend Double Dagger 16.1 7.7 57 11 6 24.1 100.78     LegendNANA
19:00 Legend Double Dagger 15.4 7.3 58 9 6 24.1 100.80     Clear
20:00 Legend Double Dagger 13.3 7.6 68 5 9 24.1 100.82     LegendNANA
21:00 Legend Double Dagger 12.3 6.6 68 1 8 24.1 100.82     LegendNANA
22:00 Legend Double Dagger 11.8 7.9 77 2 9 24.1 100.82     Clear
23:00 Legend Double Dagger 9.5 7.8 89 4 9 24.1 100.81     LegendNANA

Notes on Data Quality.

Legend

  • E = Estimated
  • M = Missing
  • NA = Not Available
  • ‡ = Partner data that is not subject to review by the National Climate Archives
Date modified: